カタログに戻る

COSMOS 1867 COOLANT

運用中LEO
NORAD 39671·DEBRIS·🇷🇺 Russia

打ち上げ Jul 10, 1987 から Baikonur Cosmodrome

Loading…

次のパス (今後24時間)

TLE

最新Source: Space-Track

元期: Sep 14, 2026, 05:39 UTC

1 39671U 87060AJ  26257.23558917  .00000171  00000-0  96005-4 0  9992
2 39671  65.0099 118.5270 0018973 280.4432  79.4516 14.34463120649427

AllMySatでCOSMOS 1867 COOLANTをリアルタイム追跡

Download on the App Store